ARG4522 SAEZ-SUMU

Flight info

Callsign ARG4522
Flight time 0h 29m
Altitude 13000
Route DORVO1A DORVO A305 TOKAM
Aircraft B738/M-SDE2E3FGHIRWXY/LB1

Departure

Time 2026-04-30 10:53
Airport Ezeiza International Airport - Ministro Pistarini (SAEZ)

Arrival

Time 2026-04-30 11:22
Airport Carrasco General Cesáreo L. Berisso International Airport (SUMU)
Time Latitude Longitude Altitude Speed Heading
2026-04-30 10:42 -34.81631 -58.54373 71 ft 0 kts 336°
2026-04-30 10:48 -34.81646 -58.54366 66 ft 4 kts 351°
2026-04-30 10:48 -34.81672 -58.54367 64 ft 4 kts 16°
2026-04-30 10:48 -34.81698 -58.54376 64 ft 4 kts 12°
2026-04-30 10:48 -34.81724 -58.54381 69 ft 4 kts 360°
2026-04-30 10:49 -34.81750 -58.54376 67 ft 4 kts 331°
2026-04-30 10:49 -34.81763 -58.54359 67 ft 1 kts 277°
2026-04-30 10:49 -34.81763 -58.54358 67 ft 1 kts 277°
2026-04-30 10:50 -34.81760 -58.54395 64 ft 16 kts 277°
2026-04-30 10:51 -34.81755 -58.54557 65 ft 21 kts 262°
2026-04-30 10:51 -34.81776 -58.54734 71 ft 21 kts 272°
2026-04-30 10:51 -34.81751 -58.54914 70 ft 22 kts 282°
2026-04-30 10:51 -34.81716 -58.55110 66 ft 25 kts 282°
2026-04-30 10:52 -34.81707 -58.55306 60 ft 23 kts 238°
2026-04-30 10:52 -34.81850 -58.55326 66 ft 22 kts 173°
2026-04-30 10:52 -34.81933 -58.55174 66 ft 38 kts 102°
2026-04-30 10:52 -34.82050 -58.54529 71 ft 116 kts 102°
2026-04-30 10:53 -34.82269 -58.53318 158 ft 171 kts 102°
2026-04-30 10:53 -34.82564 -58.51783 664 ft 198 kts 108°
2026-04-30 10:53 -34.83238 -58.50244 1218 ft 216 kts 123°
2026-04-30 10:53 -34.84233 -58.48756 1710 ft 235 kts 128°
2026-04-30 10:54 -34.85297 -58.47164 2196 ft 250 kts 127°
2026-04-30 10:54 -34.86329 -58.45415 2842 ft 258 kts 120°
2026-04-30 10:54 -34.87231 -58.43509 3602 ft 263 kts 119°
2026-04-30 10:54 -34.88133 -58.41552 4343 ft 268 kts 120°
2026-04-30 10:55 -34.89061 -58.39560 5103 ft 272 kts 121°
2026-04-30 10:55 -34.90009 -58.37544 5857 ft 276 kts 121°
2026-04-30 10:55 -34.90872 -58.35435 6573 ft 283 kts 108°
2026-04-30 10:55 -34.91283 -58.33081 7293 ft 286 kts 101°
2026-04-30 10:56 -34.91620 -58.30682 8019 ft 289 kts 101°
2026-04-30 10:56 -34.91957 -58.28248 8741 ft 293 kts 102°
2026-04-30 10:56 -34.92299 -58.25820 9459 ft 296 kts 102°
2026-04-30 10:56 -34.92656 -58.23337 10169 ft 300 kts 103°
2026-04-30 10:57 -34.93023 -58.20816 10804 ft 305 kts 103°
2026-04-30 10:57 -34.93401 -58.18243 11355 ft 315 kts 104°
2026-04-30 10:57 -34.93806 -58.15521 11528 ft 338 kts 104°
2026-04-30 10:57 -34.94240 -58.12612 11711 ft 360 kts 103°
2026-04-30 10:58 -34.94699 -58.09518 11897 ft 380 kts 103°
2026-04-30 10:58 -34.95172 -58.06299 12333 ft 390 kts 103°
2026-04-30 10:58 -34.95652 -58.03019 12922 ft 395 kts 103°
2026-04-30 10:58 -34.96142 -57.99681 13048 ft 405 kts 103°
2026-04-30 10:59 -34.96641 -57.96282 13051 ft 408 kts 103°
2026-04-30 10:59 -34.97039 -57.92862 13037 ft 410 kts 93°
2026-04-30 10:59 -34.96605 -57.89426 13075 ft 413 kts 72°
2026-04-30 10:59 -34.95314 -57.86310 13055 ft 414 kts 52°
2026-04-30 11:00 -34.93505 -57.83589 13071 ft 413 kts 49°
2026-04-30 11:00 -34.91642 -57.80914 13050 ft 414 kts 48°
2026-04-30 11:00 -34.89773 -57.78243 13054 ft 415 kts 48°
2026-04-30 11:00 -34.87910 -57.75561 13045 ft 415 kts 49°
2026-04-30 11:01 -34.86056 -57.72868 13046 ft 415 kts 49°
2026-04-30 11:01 -34.84209 -57.70167 13048 ft 415 kts 49°
2026-04-30 11:01 -34.82365 -57.67463 13045 ft 415 kts 49°
2026-04-30 11:01 -34.80522 -57.64759 13049 ft 415 kts 49°
2026-04-30 11:02 -34.78681 -57.62058 13046 ft 415 kts 49°
2026-04-30 11:02 -34.76835 -57.59354 13041 ft 415 kts 49°
2026-04-30 11:02 -34.74994 -57.56661 13039 ft 414 kts 49°
2026-04-30 11:02 -34.73234 -57.53949 13022 ft 415 kts 57°
2026-04-30 11:03 -34.72121 -57.50731 13002 ft 413 kts 78°
2026-04-30 11:03 -34.71863 -57.47288 12993 ft 409 kts 96°
2026-04-30 11:03 -34.72128 -57.43849 12992 ft 408 kts 99°
2026-04-30 11:04 -34.72767 -57.37001 12979 ft 407 kts 99°
2026-04-30 11:04 -34.73081 -57.33587 12979 ft 406 kts 99°
2026-04-30 11:04 -34.73383 -57.30172 12982 ft 406 kts 99°
2026-04-30 11:04 -34.73676 -57.26757 12985 ft 406 kts 99°
2026-04-30 11:05 -34.73961 -57.23348 12990 ft 406 kts 98°
2026-04-30 11:05 -34.74243 -57.19925 12988 ft 406 kts 98°
2026-04-30 11:05 -34.74522 -57.16507 12990 ft 407 kts 98°
2026-04-30 11:05 -34.74801 -57.13082 12993 ft 407 kts 98°
2026-04-30 11:06 -34.75079 -57.09652 12989 ft 407 kts 98°
2026-04-30 11:06 -34.75356 -57.06225 12985 ft 408 kts 98°
2026-04-30 11:06 -34.75592 -57.03291 12992 ft 408 kts 98°
2026-04-30 11:06 -34.75867 -56.99861 12991 ft 408 kts 98°
2026-04-30 11:07 -34.76142 -56.96425 12991 ft 408 kts 98°
2026-04-30 11:07 -34.76411 -56.93043 12978 ft 396 kts 98°
2026-04-30 11:07 -34.76671 -56.89744 12983 ft 389 kts 98°
2026-04-30 11:07 -34.76931 -56.86474 12994 ft 389 kts 98°
2026-04-30 11:08 -34.77192 -56.83192 12987 ft 390 kts 98°
2026-04-30 11:08 -34.77452 -56.79900 12630 ft 391 kts 98°
2026-04-30 11:08 -34.77709 -56.76619 12217 ft 390 kts 98°
2026-04-30 11:08 -34.77951 -56.73356 11876 ft 383 kts 95°
2026-04-30 11:09 -34.77873 -56.70205 11731 ft 374 kts 83°
2026-04-30 11:09 -34.77355 -56.67154 11586 ft 363 kts 78°
2026-04-30 11:09 -34.76789 -56.64202 11431 ft 353 kts 77°
2026-04-30 11:09 -34.76236 -56.61331 11286 ft 344 kts 77°
2026-04-30 11:10 -34.75702 -56.58529 11144 ft 336 kts 78°
2026-04-30 11:10 -34.75184 -56.55792 11001 ft 328 kts 78°
2026-04-30 11:10 -34.74685 -56.53138 10963 ft 316 kts 78°
2026-04-30 11:10 -34.74194 -56.50515 10511 ft 321 kts 78°
2026-04-30 11:11 -34.73701 -56.47874 10175 ft 321 kts 77°
2026-04-30 11:11 -34.73211 -56.45250 9860 ft 315 kts 77°
2026-04-30 11:11 -34.72732 -56.42687 9526 ft 307 kts 77°
2026-04-30 11:11 -34.72266 -56.40190 9231 ft 301 kts 77°
2026-04-30 11:12 -34.71802 -56.37713 8950 ft 300 kts 77°
2026-04-30 11:12 -34.71341 -56.35252 8663 ft 298 kts 77°
2026-04-30 11:12 -34.70881 -56.32799 8379 ft 297 kts 77°
2026-04-30 11:12 -34.70423 -56.30361 8092 ft 296 kts 77°
2026-04-30 11:13 -34.69965 -56.27926 7808 ft 295 kts 77°
2026-04-30 11:13 -34.69511 -56.25515 7502 ft 290 kts 77°
2026-04-30 11:13 -34.69066 -56.23153 7243 ft 286 kts 77°
2026-04-30 11:13 -34.68624 -56.20805 6971 ft 285 kts 77°
2026-04-30 11:14 -34.68183 -56.18470 6690 ft 281 kts 76°
2026-04-30 11:14 -34.67752 -56.16190 6405 ft 274 kts 76°
2026-04-30 11:14 -34.67330 -56.13962 6120 ft 267 kts 76°
2026-04-30 11:14 -34.66919 -56.11789 5845 ft 261 kts 76°
2026-04-30 11:15 -34.66517 -56.09667 5572 ft 255 kts 76°
2026-04-30 11:15 -34.66121 -56.07585 5300 ft 252 kts 76°
2026-04-30 11:15 -34.65726 -56.05507 5036 ft 252 kts 76°
2026-04-30 11:15 -34.65406 -56.03426 4803 ft 248 kts 84°
2026-04-30 11:16 -34.65388 -56.01361 4538 ft 242 kts 94°
2026-04-30 11:16 -34.65604 -55.99367 4277 ft 235 kts 101°
2026-04-30 11:16 -34.65951 -55.97457 3988 ft 228 kts 104°
2026-04-30 11:16 -34.66390 -55.95628 3702 ft 223 kts 108°
2026-04-30 11:17 -34.66940 -55.93889 3416 ft 218 kts 113°
2026-04-30 11:17 -34.67593 -55.92251 3140 ft 213 kts 118°
2026-04-30 11:17 -34.68329 -55.90737 3009 ft 201 kts 122°
2026-04-30 11:17 -34.69110 -55.89352 2995 ft 199 kts 126°
2026-04-30 11:18 -34.70001 -55.88070 2991 ft 197 kts 136°
2026-04-30 11:18 -34.72308 -55.86582 2993 ft 192 kts 194°
2026-04-30 11:18 -34.73436 -55.87331 2986 ft 191 kts 220°
2026-04-30 11:19 -34.74524 -55.88311 2784 ft 191 kts 223°
2026-04-30 11:19 -34.75452 -55.89445 2525 ft 184 kts 229°
2026-04-30 11:19 -34.76251 -55.90593 2317 ft 170 kts 234°
2026-04-30 11:19 -34.76941 -55.91703 2073 ft 161 kts 236°
2026-04-30 11:20 -34.77599 -55.92789 1872 ft 162 kts 236°
2026-04-30 11:20 -34.78266 -55.93891 1652 ft 161 kts 235°
2026-04-30 11:20 -34.78937 -55.94998 1425 ft 160 kts 235°
2026-04-30 11:20 -34.79585 -55.96067 1220 ft 160 kts 236°
2026-04-30 11:21 -34.80246 -55.97157 1002 ft 159 kts 235°
2026-04-30 11:21 -34.80901 -55.98236 780 ft 158 kts 235°
2026-04-30 11:21 -34.81548 -55.99306 553 ft 157 kts 235°
2026-04-30 11:21 -34.82186 -56.00380 335 ft 155 kts 235°
2026-04-30 11:22 -34.82833 -56.01432 124 ft 155 kts 235°
2026-04-30 11:22 -34.83396 -56.02360 85 ft 94 kts 234°
2026-04-30 11:22 -34.83638 -56.02755 78 ft 33 kts 232°
2026-04-30 11:22 -34.83761 -56.02854 70 ft 17 kts 180°
2026-04-30 11:23 -34.83878 -56.02847 70 ft 17 kts 167°
2026-04-30 11:23 -34.83979 -56.02788 73 ft 16 kts 174°
2026-04-30 11:23 -34.84068 -56.02755 69 ft 0 kts 148°